Gulkana, AK

7:52 AM AKDT on April 19, 2018 (GMT -0800)
Gulkana

Weather History for PAGK - August, 2013

Change the Weather History Date:

Thursday, August 22, 2013

  Actual Average Record
Temperature  
Mean Temperature 50 °F -  
Max Temperature 55 °F 62 °F 82 °F (1977)
Min Temperature 46 °F 41 °F 28 °F (1954)
Degree Days  
Heating Degree Days 14    
Moisture  
Dew Point 45 °F    
Average Humidity 81    
Maximum Humidity 96    
Minimum Humidity 66    
Precipitation  
Precipitation 0.00 in - - ()
Sea Level Pressure  
Sea Level Pressure 29.75 in    
Wind  
Wind Speed 11 mph (SSE)    
Max Wind Speed 16 mph    
Max Gust Speed 21 mph    
Visibility 10 miles    
Events Rain    
Averages and records for this station are not official NWS values.
T = Trace of Precipitation, MM = Missing Value Source: NWS Daily Summary

Daily Weather History Graph

Daily Weather History Graph

Search for Another Location

Airport or City:

Trip Planner

Search our weather history database for the weather conditions in past years. The results will help you decide how hot, cold, wet, or windy it might be!

Date:

Astronomy

Aug. 22, 2013 Rise Set
Actual Time 6:05 AM AKDT 9:21 PM AKDT
Civil Twilight 5:12 AM AKDT 10:14 PM AKDT
Nautical Twilight 3:54 AM AKDT 11:30 PM AKDT
Astronomical Twilight 2:17 AM AKDT 1:12 AM AKDT
Moon 9:07 PM AKDT (8/22) 8:59 AM AKDT (8/22)
Length of Visible Light 17h 02m
Length of Day
15h 16m
Waning Gibbous, 96% of the Moon is Illuminated
Aug 22
Waning Gibbous
Aug 28
Last Quarter
Sep 5
New
Sep 12
First Quarter
Sep 19
Full

Hourly Weather History & Observations

Time (AKDT) Temp. Dew Point Humidity Pressure Visibility Wind Dir Wind Speed Gust Speed Precip Events Conditions
12:53 AM 48.0 °F 44.1 °F 86% 29.79 in 10.0 mi South 10.4 mph - 0.00 in Rain Light Rain
1:53 AM 48.0 °F 44.1 °F 86% 29.79 in 10.0 mi SSE 11.5 mph - 0.00 in   Overcast
2:53 AM 48.0 °F 44.1 °F 86% 29.78 in 10.0 mi South 10.4 mph - N/A   Overcast
3:53 AM 48.0 °F 43.0 °F 83% 29.78 in 10.0 mi South 9.2 mph - N/A   Overcast
4:53 AM 48.0 °F 43.0 °F 83% 29.77 in 10.0 mi South 9.2 mph - N/A   Overcast
5:53 AM 46.9 °F 43.0 °F 86% 29.78 in 10.0 mi SSE 10.4 mph - N/A   Overcast
6:53 AM 46.9 °F 44.1 °F 90% 29.78 in 10.0 mi South 8.1 mph - N/A   Overcast
7:53 AM 48.0 °F 44.1 °F 86% 29.78 in 10.0 mi SSE 10.4 mph - N/A   Overcast
8:53 AM 48.9 °F 45.0 °F 86% 29.78 in 10.0 mi South 10.4 mph - N/A   Overcast
9:53 AM 51.1 °F 45.0 °F 80% 29.78 in 10.0 mi South 8.1 mph - N/A   Overcast
10:53 AM 51.1 °F 45.0 °F 80% 29.78 in 10.0 mi South 10.4 mph - N/A   Mostly Cloudy
11:53 AM 54.0 °F 46.0 °F 75% 29.77 in 10.0 mi South 12.7 mph - 0.00 in   Overcast
12:53 PM 55.0 °F 46.0 °F 72% 29.76 in 10.0 mi SSE 13.8 mph - N/A   Mostly Cloudy
1:53 PM 54.0 °F 46.0 °F 75% 29.76 in 10.0 mi SSE 16.1 mph - 0.00 in Rain Light Rain
2:53 PM 55.9 °F 46.0 °F 69% 29.75 in 10.0 mi SSE 13.8 mph 20.7 mph 0.00 in   Overcast
3:53 PM 55.0 °F 46.9 °F 74% 29.75 in 10.0 mi South 11.5 mph - 0.00 in Rain Light Rain
4:53 PM 54.0 °F 46.9 °F 77% 29.73 in 10.0 mi SSE 16.1 mph 20.7 mph 0.00 in Rain Light Rain
5:53 PM 55.0 °F 45.0 °F 69% 29.72 in 10.0 mi SE 15.0 mph - 0.00 in   Overcast
6:53 PM 54.0 °F 45.0 °F 72% 29.71 in 10.0 mi SSE 16.1 mph - N/A   Overcast
7:53 PM 53.1 °F 45.0 °F 74% 29.70 in 10.0 mi SSE 12.7 mph - 0.00 in   Overcast
8:53 PM 51.1 °F 46.9 °F 86% 29.71 in 10.0 mi SSE 9.2 mph - 0.00 in Rain Light Rain
9:53 PM 50.0 °F 46.9 °F 89% 29.70 in 10.0 mi South 9.2 mph - 0.00 in Rain Light Rain
10:53 PM 48.9 °F 46.9 °F 93% 29.71 in 10.0 mi South 10.4 mph - 0.02 in Rain Light Rain
11:53 PM 48.0 °F 46.9 °F 96% 29.70 in 10.0 mi South 10.4 mph - 0.00 in Rain Light Rain